Regional Weather Roundup
Issued by NWS Kansas City/Pleasant Hill, MO

Home | Current Version | Previous Version | Graphics & Text | Print | Product List | Glossary Off
Versions: 1 2 3 4 5 6 7 8 9 10 11 12 13 14 15 16 17 18 19 20 21 22 23 24 25 26 27 28 29 30 31 32 33 34 35 36 37 38 39 40 41 42 43 44 45 46 47 48 49 50

000
ASUS43 KEAX 272310
RWREAX

WEATHER ROUNDUP FOR EASTERN KANSAS AND NORTHWEST MISSOURI
NATIONAL WEATHER SERVICE KANSAS CITY/PLEASANT HILL MO
500 PM CST FRI FEB 27 2015

KSZ040-057-103>105-MOZ028-029-037-043-280000-
...KANSAS CITY METROPOLITAN AREA...

CITY           SKY/WX    TMP DP  RH WIND       PRES   REMARKS
K.C. INTL      CLOUDY    17   0  47 S7        30.54S WCI   8
K.C. DOWNTOWN  CLOUDY    19   1  45 E8        30.56F WCI   9
LEES SUMMIT    MOSUNNY   18  -1  43 VRB3      30.54F
OLATHE - IXD   PTSUNNY   19  -1  41 SE7       30.53F WCI  10
OLATHE - OJC   MOSUNNY   18  -1  43 SE6       30.52F WCI  10
LAWRENCE       MOSUNNY   19  -1  41 E3        30.56F

$$

MOZ001>008-011>017-020>025-030>033-038>040-044>046-053-054-280000-
...NORTHERN AND CENTRAL MISSOURI...

CITY           SKY/WX    TMP DP  RH WIND       PRES   REMARKS
ST. JOSEPH     FAIR      20   1  43 SE5       30.56S WCI  13
MOSBY          MOCLDY    19   3  49 CALM      30.57S
WARRENSBURG    CLOUDY    19   3  49 NE5       30.57S WCI  13
WHITEMAN AFB   PTSUNNY   20   2  46 E3        30.55S
CLINTON        CLOUDY    23   3  42 CALM      30.56F
SEDALIA        PTSUNNY   21   3  45 E5        30.57S WCI  15
WARSAW         NOT AVBL
MARSHALL       MOSUNNY   21   5  49 NE3       30.59
CHILLICOTHE      N/A     18   2  49 NE3       30.59S
MOBERLY        PTSUNNY   18   1  49 E8        30.58F WCI   7
KIRKSVILLE     SUNNY     17   2  51 E8        30.57S WCI   7

$$

MOZ041-047>049-056>058-063>065-088>090-097-280000-
...EASTERN AND SOUTHERN MISSOURI...

CITY           SKY/WX    TMP DP  RH WIND       PRES   REMARKS
ST. LOUIS INTL MOCLDY    18  -1  43 NE7       30.62S WCI   9
SPIRIT OF STL  MOCLDY    18   1  47 E9        30.62R WCI   7
COLUMBIA       MOSUNNY   20   3  48 NE9       30.56S WCI   9
JEFFERSON CITY CLOUDY    22  -1  36 SE9       30.59S WCI  12
MEXICO         MOCLDY    18   7  62 E5        30.59F WCI  11
HANNIBAL       PTCLDY    14  -9  34 CALM      30.60F
ROLLA          CLOUDY    20  -2  38 N3        30.52F
LEBANON        CLOUDY    19   1  45 E5        30.51S WCI  13
OSAGE BEACH    CLOUDY    21   0  39 E5        30.55F WCI  15
SPRINGFIELD    CLOUDY    22   3  44 NE6       30.48F WCI  14
BRANSON        LGT SNOW  19  12  73 CALM      30.51F
NEVADA         MOSUNNY   21   1  42 CALM      30.55S
JOPLIN         CLOUDY    22   1  40 E6        30.51S WCI  14
WEST PLAINS    CLOUDY    21   0  39 E6        30.52F WCI  13

$$

IAZ060-094-KSZ022-034>040-054-083-096-NEZ052-066-093-280000-
...KANSAS...SOUTHEAST NEBRASKA AND IOWA...

CITY           SKY/WX    TMP DP  RH WIND       PRES   REMARKS
TOPEKA         CLOUDY    19   0  43 E3        30.55F
MANHATTAN      CLOUDY    19   0  43 CALM      30.52F
EMPORIA        CLOUDY    17   2  51 SE6       30.50F WCI   9
CHANUTE        LGT SNOW  19   9  65 E5        30.53F WCI  12
WICHITA        LGT SNOW  16   9  74 SE7       30.48F WCI   6
OMAHA          MOSUNNY   19   4  51 E8        30.52F WCI   9
LINCOLN        SUNNY     21   1  41 SE6       30.50S WCI  13
FALLS CITY     PTSUNNY   19  -2  39 S6        30.53S WCI  11
LAMONI         SUNNY     14  -1  51 SE5       30.53F WCI   6
DES MOINES     MOSUNNY   14  -3  47 CALM      30.56F

$$




USA.gov is the U.S. government's official web portal to all federal, state and local government web resources and services.